Temp_Advection
nan nan nan nan nan nan nan nan nan nan nan nan nan nan nan nan nan nan nan nan nan nan nan nan nan nan nan nan nan nan nan nan nan nan nan nan nan nan nan nan nan nan nan
nan -1 -1 -0 -0 0 0 0 0 0 0 -0 0 0 0 0 0 0 0 0 -0 -0 0 0 -0 0 0 0 0 0 0 0 0 0 -0 -0 -0 -0 0 0 -0 -0 nan
nan -0 -1 -0 -0 0 0 0 0 0 0 0 0 0 -0 0 0 0 0 -0 -0 -0 0 0 -0 -0 -0 -0 -0 0 0 0 0 0 -0 -0 -0 0 0 0 -0 0 nan
nan -0 -0 -1 -0 0 0 0 0 0 0 0 -0 -0 0 -0 -0 -0 0 0 0 -0 0 0 0 0 0 -0 -0 0 0 0 0 0 0 -0 -0 -0 0 0 -0 -0 nan
nan 0 -0 -0 -0 0 0 0 0 0 0 0 -0 -0 0 -0 -0 -0 0 0 -0 0 0 0 -0 0 0 0 0 0 0 0 0 0 0 0 0 0 0 -0 0 0 nan
nan 0 0 0 -0 0 0 0 0 0 0 -0 -0 -0 -0 -0 -0 -0 -0 0 0 0 0 0 0 0 0 0 0 0 0 0 0 0 0 -0 0 0 0 0 -0 -0 nan
nan 0 0 -0 -0 -0 0 0 0 0 0 -0 -0 -0 -0 0 0 -0 0 0 0 0 0 0 0 0 0 0 0 0 0 0 0 0 0 -0 -0 -0 0 0 0 0 nan
nan 0 0 -0 0 0 -0 0 0 0 0 0 -0 -0 -0 -0 -0 -0 -0 0 -0 0 0 0 0 -0 -0 -0 -0 -0 -0 -0 -0 -0 -0 -0 -0 -0 -0 0 0 0 nan
nan 0 0 0 0 -0 0 0 0 0 -0 0 0 -0 -0 -0 -0 -0 -0 -0 -0 -0 -0 -0 -0 -0 -0 -0 -0 -0 -0 -0 -0 -0 -0 -0 -0 -0 -0 -0 0 0 nan
nan 0 0 0 0 0 0 0 0 0 -0 -0 -0 -0 -0 -0 -0 -0 -0 -0 -0 -0 -0 -0 -0 -0 -0 -0 -0 -0 -0 -0 -0 -0 -0 -0 -0 -0 -0 0 0 0 nan
nan -0 0 -0 0 0 0 0 0 -0 -0 -0 -0 -0 0 -0 -0 -0 -0 -0 -0 -0 -0 -0 -0 -0 -0 -0 -0 0 0 0 -0 -0 0 -0 -0 -0 -0 -0 -0 0 nan
nan 0 0 -0 0 0 0 0 0 0 0 -0 -0 0 0 0 0 0 0 0 -0 -0 -0 -0 -0 -0 0 0 -0 -0 0 0 0 0 0 0 -0 -0 -0 -0 -0 -0 nan
nan 0 -0 0 0 0 0 0 0 0 0 0 0 0 0 0 0 0 0 -0 -0 -0 0 -0 -0 -0 -0 0 0 0 0 0 0 0 0 0 -0 -0 -0 0 0 -0 nan
nan 0 0 0 0 0 1 1 0 0 0 0 0 0 0 0 0 0 0 0 0 -0 -0 0 0 0 -0 -0 -0 -0 -0 -0 -0 0 0 0 -0 -0 -0 -0 -0 -0 nan
nan -0 0 1 1 1 1 1 0 0 0 0 0 0 0 0 0 0 0 0 0 -0 -0 -0 0 0 -0 -0 0 0 -0 -0 -0 -0 -0 -0 -0 -0 -0 -0 -0 -0 nan
nan -0 1 1 1 1 1 1 0 0 0 0 0 0 0 0 0 0 0 0 -0 -0 -0 -0 -0 -0 -0 -0 -0 -0 -0 0 0 -0 -0 -0 -0 -0 -0 -0 -0 -0 nan
nan 0 1 1 1 1 1 1 0 0 0 0 0 0 0 0 0 0 -0 0 0 -0 -0 0 0 -0 -0 -0 -0 -0 -0 -0 0 0 0 -0 -0 -0 -0 -0 -0 -0 nan
nan 0 1 2 1 1 1 0 0 0 0 0 -0 0 0 0 0 0 -0 -0 -0 0 -0 -0 -0 -0 -0 -0 -0 -0 0 0 0 0 -0 -0 -0 -0 -0 -0 -0 -0 nan
nan 0 1 2 1 1 0 0 0 0 0 0 0 0 0 0 -0 -0 -0 0 -0 -0 -0 -0 -0 -1 -1 -1 -0 -0 0 0 0 -0 -0 -0 -0 -0 0 -0 -0 -0 nan
nan 1 2 2 1 0 0 1 0 0 0 0 0 0 0 -0 -0 -0 -0 -0 -0 -0 -0 -0 -0 -0 -1 -1 -1 -0 0 0 0 0 -0 -0 -0 -0 -0 -0 -0 -0 nan
nan 1 1 1 0 1 1 0 0 0 0 0 0 -0 -0 -0 0 -0 -0 -0 -0 -0 -0 -0 -0 -0 -0 -1 -1 -1 -0 0 0 0 -0 -0 -0 -0 0 -0 -0 -0 nan
nan 1 1 1 1 1 0 0 0 0 0 0 -0 -0 -0 0 0 -0 -0 -0 -0 -0 -0 -0 -0 -0 -1 -1 -1 -2 -1 -1 0 0 -0 -0 -1 -1 -1 -0 -1 -0 nan
nan 1 1 1 2 1 0 1 0 -0 -0 -0 -0 0 0 0 0 -0 -0 -0 -0 -0 -0 -0 -0 -0 -0 -0 -0 -1 -0 -0 -4 -2 -2 -1 -1 -2 -1 -1 -1 -1 nan
nan 1 1 1 1 0 0 0 -0 -0 -0 -0 -0 0 0 0 0 -0 -0 -0 -0 -0 -0 -0 -0 -0 -0 -0 -0 -0 0 0 -0 -2 -3 -3 -0 -1 -2 -2 -1 -1 nan
nan 1 1 1 0 0 0 0 -0 -0 -0 -0 0 0 0 0 0 0 -0 -0 -0 -0 -0 -0 -0 -0 -0 -0 -0 -0 -0 -0 0 0 -3 -5 -4 -2 -2 -1 -1 -1 nan
nan nan nan nan nan nan nan nan nan nan nan nan nan nan nan nan nan nan nan nan nan nan nan nan nan nan nan nan nan nan nan nan nan nan nan nan nan nan nan nan nan nan nan
Wind_Speed
8 10 14 15 12 11 8 7 6 5 4 4 3 6 7 9 9 7 5 6 9 12 7 5 7 3 3 6 9 10 11 13 15 19 18 16 11 11 13 10 10 8 6
7 11 14 16 13 12 9 9 7 6 6 5 0 8 8 5 11 8 6 7 8 10 5 3 7 6 7 8 7 7 10 13 13 15 10 6 4 3 5 4 4 5 5
7 10 12 16 14 12 13 10 6 7 7 4 1 15 14 7 5 3 4 7 4 4 7 5 3 5 6 7 8 9 11 13 15 11 9 4 4 5 5 5 7 6 9
7 10 11 16 18 15 14 9 7 7 4 2 3 8 8 7 4 3 2 4 7 8 8 7 4 1 3 6 7 9 10 13 12 10 8 5 7 7 6 6 8 8 10
10 11 12 14 17 14 12 9 6 4 2 1 5 7 7 5 4 2 1 6 9 11 9 8 7 5 4 2 3 3 5 6 6 6 6 6 7 8 6 6 10 11 10
10 10 10 14 14 12 10 8 6 4 1 2 5 9 9 6 4 3 1 5 7 8 8 7 7 7 7 5 5 4 4 5 6 6 7 7 9 8 9 8 12 13 10
11 11 10 12 12 10 11 7 6 4 3 3 5 7 8 6 3 2 2 3 6 6 5 7 8 8 8 8 8 8 6 7 8 9 10 10 10 10 10 11 11 13 14
9 11 10 10 11 11 9 8 7 5 6 4 4 6 6 8 6 6 6 6 4 4 4 6 7 7 8 8 8 8 8 9 9 10 11 11 11 10 10 11 12 12 16
10 11 10 9 11 11 11 9 8 7 6 3 3 2 5 6 8 6 5 4 3 3 5 6 7 6 6 6 6 6 7 7 9 9 10 10 10 11 12 13 14 13 14
12 12 10 10 13 13 12 12 9 9 8 4 1 1 3 6 6 5 3 1 1 3 4 5 5 5 6 7 8 9 10 10 12 12 12 9 10 10 10 12 12 12 14
17 16 13 12 13 15 13 12 11 9 7 6 4 2 4 6 6 4 2 1 2 3 4 6 7 7 9 11 10 10 10 12 14 14 13 12 12 11 11 12 12 13 15
17 18 17 15 15 16 16 15 13 10 8 7 6 6 5 6 5 4 2 1 1 3 4 6 7 9 11 12 13 12 13 12 13 12 11 9 11 12 11 12 15 17 19
13 18 19 18 17 18 17 16 15 11 10 8 7 7 5 5 5 3 2 0 2 4 5 8 10 11 13 14 15 17 15 16 16 15 14 14 14 14 15 15 15 17 17
18 18 18 19 20 19 16 16 14 12 11 10 9 8 5 4 3 3 3 2 4 6 8 10 11 14 16 17 19 17 16 17 18 18 18 18 18 19 19 17 16 14 15
25 24 22 21 21 21 19 17 16 13 11 11 10 8 7 5 6 5 3 4 5 9 11 13 16 19 17 16 17 19 19 20 19 19 18 18 19 17 12 11 8 10 9
26 25 25 24 22 22 20 18 15 12 12 11 10 9 7 6 9 6 4 5 8 12 14 16 15 17 19 20 21 21 21 20 18 16 14 11 7 6 6 7 9 10 9
26 25 24 26 23 23 21 19 15 12 12 13 11 9 8 7 7 5 5 7 11 11 12 15 17 20 22 22 21 19 15 13 11 9 8 8 9 9 10 11 11 13 13
27 26 24 27 24 23 21 18 18 16 15 14 13 10 8 7 7 5 6 7 7 10 14 18 19 21 20 19 17 12 12 10 9 7 8 10 11 11 12 13 14 16 18
25 24 25 27 25 23 22 21 19 18 16 15 13 10 7 6 6 4 4 5 8 11 13 14 15 17 18 16 15 12 11 10 8 8 7 10 11 13 13 13 15 18 19
20 20 24 28 26 25 24 21 18 17 16 15 13 12 7 8 6 3 3 6 9 12 14 14 13 15 17 18 17 15 8 9 12 12 9 15 11 15 12 17 20 19 20
21 19 25 29 29 28 26 22 19 17 16 15 14 11 10 9 4 1 5 9 13 16 18 17 14 13 16 20 22 20 10 9 15 11 16 18 20 18 16 25 21 24 24
21 23 25 29 32 31 23 20 20 19 18 17 15 15 12 7 2 2 7 11 14 16 15 14 15 15 16 20 21 18 12 15 5 14 22 17 24 18 27 24 28 27 28
22 22 26 31 33 27 20 20 21 21 21 20 19 15 11 6 0 5 9 12 15 16 15 14 14 16 16 16 17 14 8 7 35 18 33 27 31 33 31 32 32 30 29
21 20 21 28 29 23 19 23 23 24 24 23 19 14 9 5 2 5 8 12 15 15 14 13 14 16 17 19 17 16 14 17 14 20 27 42 36 40 39 37 35 31 33
22 22 22 27 25 22 19 19 21 23 24 22 18 13 9 5 4 6 9 12 14 15 14 13 14 16 18 18 20 22 23 24 23 19 36 41 47 44 43 39 38 39 34
24 24 26 26 24 21 19 20 21 25 25 21 18 13 9 6 5 7 10 12 14 14 14 15 16 17 18 20 21 22 22 23 25 25 32 38 41 44 44 47 38 36 35
Wind_Direction
178 164 169 165 177 194 194 211 230 262 290 303 247 212 199 194 198 196 222 244 284 315 325 173 182 173 126 177 211 229 246 265 286 301 288 287 273 263 250 257 270 258 233
170 159 166 168 177 194 209 214 238 271 300 316 290 143 145 156 203 203 224 255 283 316 348 250 200 204 193 209 214 236 254 274 296 322 319 306 285 266 231 241 264 224 211
161 160 161 171 181 192 209 216 238 273 296 305 275 172 171 153 154 197 236 265 310 19 20 27 223 224 227 214 240 257 271 289 298 329 334 314 317 296 280 244 249 237 225
163 161 158 170 187 198 205 213 241 276 293 323 126 141 168 177 182 138 101 43 61 37 32 30 49 41 245 240 256 272 276 291 297 316 332 320 314 306 289 250 270 272 253
163 163 159 168 183 189 201 213 236 262 274 205 159 155 150 148 145 159 50 349 23 19 30 38 41 31 37 15 332 315 304 303 326 321 310 310 300 298 298 268 268 269 271
165 163 167 170 179 192 193 200 226 238 216 132 174 168 151 157 187 206 222 298 354 4 22 36 35 35 27 20 14 24 0 346 345 345 342 325 311 298 286 271 274 282 284
172 173 173 180 186 190 191 210 214 218 193 115 157 166 155 174 146 245 159 262 304 340 7 18 20 17 14 11 9 5 347 347 345 343 339 332 324 314 303 286 275 276 277
190 191 186 191 197 200 204 220 223 219 184 128 106 161 164 181 184 177 199 245 278 321 357 12 11 10 3 0 357 350 342 335 334 333 333 336 335 325 318 306 296 268 277
197 209 206 208 208 209 217 225 231 214 174 163 104 137 169 180 188 185 193 227 267 334 357 8 4 9 4 1 4 358 348 346 338 336 332 330 326 323 321 316 302 292 272
221 216 217 225 221 214 220 224 224 202 200 218 251 191 177 180 178 183 193 197 339 1 17 13 13 6 0 351 347 340 329 322 324 320 320 320 318 309 305 309 295 295 295
224 225 224 227 227 219 222 224 221 214 216 219 224 217 185 171 160 150 156 124 49 22 25 3 4 357 341 332 327 317 317 316 313 314 315 312 310 305 298 289 292 289 285
229 231 227 225 224 220 220 222 220 220 221 214 216 197 164 160 160 164 153 139 39 356 356 355 337 327 323 315 312 313 309 303 302 303 307 303 295 292 289 290 292 289 284
260 239 236 227 224 219 220 219 218 221 225 214 194 193 178 175 170 171 167 311 305 308 311 332 325 314 306 305 306 307 307 305 306 305 296 300 302 304 304 291 284 280 281
257 250 240 232 225 221 219 219 219 224 216 210 208 206 194 204 203 226 246 281 302 307 313 312 305 299 299 295 298 298 299 299 298 296 295 295 296 299 305 296 299 297 299
254 250 243 232 227 223 221 219 218 220 217 213 210 215 217 222 229 230 234 274 312 305 297 294 292 294 293 292 294 298 299 297 295 294 293 294 295 298 297 294 300 294 293
255 251 242 235 229 224 224 223 224 224 217 213 211 215 221 231 246 257 246 282 298 290 296 300 297 297 298 299 299 300 300 299 297 294 294 292 279 277 286 288 293 294 297
245 248 241 233 226 221 223 227 231 229 210 207 207 207 222 228 225 216 258 282 279 291 296 298 297 296 296 297 301 304 302 298 294 291 281 275 274 280 289 292 291 292 293
240 243 234 225 221 217 220 225 224 214 210 213 206 216 209 210 223 232 257 283 287 299 302 300 300 302 305 310 315 316 305 291 277 277 284 284 289 289 290 291 292 292 291
240 236 227 218 214 211 214 217 220 216 214 213 215 207 192 199 224 227 246 291 310 315 317 320 323 319 320 323 326 325 304 275 257 282 303 301 297 300 293 294 297 298 296
237 225 220 208 206 207 212 211 211 210 211 209 208 198 223 199 194 210 310 327 337 342 341 339 340 332 332 332 333 335 301 269 265 269 294 315 307 305 289 304 297 298 297
229 216 210 204 205 213 207 199 202 202 197 189 188 198 183 180 181 306 339 349 351 348 348 346 344 343 340 339 341 342 330 266 288 241 304 298 308 295 285 312 303 303 298
229 221 211 206 210 207 208 201 190 193 182 184 184 172 169 175 180 355 359 356 354 350 347 343 345 350 352 348 349 347 333 328 240 258 304 288 313 303 298 301 305 302 298
223 221 216 210 204 201 201 194 184 189 181 178 172 174 174 177 193 352 349 350 351 350 346 345 344 346 349 350 352 1 339 313 318 317 312 312 312 312 311 311 310 307 303
218 213 207 200 196 195 200 190 191 191 182 177 176 179 182 186 280 326 339 345 346 345 343 340 340 339 340 341 341 335 328 316 318 314 309 311 315 313 314 314 313 309 308
209 198 189 186 189 193 197 201 195 190 181 178 180 185 190 213 270 316 332 336 338 339 337 334 332 333 333 331 331 329 326 322 321 306 308 311 311 313 314 314 312 309 307
196 190 184 185 187 190 191 193 190 184 184 185 186 192 204 232 279 306 320 327 332 333 330 329 329 328 326 326 325 324 325 324 317 314 308 308 309 311 310 310 310 311 309
Height
1491 1492 1494 1497 1499 1500 1500 1501 1501 1502 1502 1501 1501 1501 1501 1503 1504 1505 1505 1505 1505 1506 1506 1505 1505 1505 1505 1506 1506 1507 1507 1507 1506 1506 1504 1502 1502 1501 1502 1504 1504 1505 1505
1491 1491 1493 1496 1498 1500 1501 1500 1501 1502 1501 1500 1500 1501 1502 1503 1504 1505 1505 1505 1505 1505 1505 1505 1504 1505 1505 1505 1506 1507 1506 1505 1505 1503 1501 1501 1501 1501 1501 1503 1503 1503 1505
1490 1491 1493 1496 1498 1499 1500 1501 1501 1501 1501 1500 1499 1500 1502 1503 1504 1505 1505 1504 1505 1505 1504 1504 1504 1504 1505 1505 1505 1506 1505 1504 1503 1503 1501 1501 1501 1501 1501 1501 1502 1503 1504
1490 1492 1493 1496 1497 1499 1500 1501 1502 1502 1501 1500 1499 1500 1502 1504 1504 1505 1506 1505 1505 1505 1503 1503 1504 1504 1504 1504 1504 1504 1504 1503 1502 1502 1501 1501 1501 1501 1500 1501 1501 1502 1502
1491 1492 1493 1495 1497 1498 1499 1501 1502 1502 1501 1500 1500 1501 1502 1503 1505 1506 1507 1506 1506 1505 1503 1503 1503 1504 1503 1503 1503 1503 1502 1503 1501 1501 1500 1500 1499 1500 1500 1501 1501 1501 1501
1490 1492 1493 1494 1496 1498 1499 1500 1501 1501 1501 1500 1500 1501 1503 1504 1505 1506 1507 1507 1507 1506 1504 1504 1504 1504 1504 1503 1503 1502 1502 1501 1501 1500 1499 1499 1498 1498 1498 1499 1499 1499 1499
1490 1492 1493 1495 1496 1498 1499 1500 1500 1501 1501 1500 1500 1501 1502 1504 1505 1506 1507 1507 1507 1506 1504 1504 1504 1504 1504 1503 1503 1502 1501 1501 1500 1499 1499 1498 1498 1497 1496 1496 1497 1498 1498
1490 1491 1493 1494 1496 1497 1498 1500 1500 1500 1500 1500 1500 1501 1501 1504 1505 1505 1506 1506 1506 1505 1505 1504 1504 1503 1504 1503 1502 1501 1501 1500 1500 1499 1498 1497 1496 1495 1495 1495 1494 1495 1495
1490 1491 1492 1494 1495 1496 1497 1498 1500 1499 1500 1500 1501 1501 1501 1503 1504 1504 1504 1505 1506 1505 1505 1504 1503 1503 1503 1503 1501 1500 1500 1499 1498 1497 1496 1495 1495 1494 1493 1492 1492 1491 1492
1490 1490 1491 1493 1494 1495 1497 1497 1498 1499 1500 1500 1501 1501 1501 1502 1503 1503 1504 1504 1506 1505 1504 1504 1503 1503 1503 1502 1501 1501 1499 1498 1497 1496 1494 1493 1492 1491 1491 1490 1489 1489 1489
1488 1489 1489 1491 1493 1494 1496 1497 1497 1497 1499 1500 1501 1501 1501 1502 1502 1503 1504 1504 1505 1505 1504 1504 1503 1502 1502 1502 1500 1499 1497 1496 1494 1493 1492 1491 1489 1488 1487 1487 1486 1485 1485
1486 1487 1488 1489 1491 1493 1494 1496 1496 1497 1498 1499 1500 1501 1501 1502 1502 1502 1503 1504 1504 1505 1504 1503 1503 1502 1501 1499 1498 1496 1495 1493 1491 1490 1488 1487 1485 1484 1483 1482 1482 1481 1480
1486 1486 1486 1488 1489 1490 1492 1494 1496 1496 1497 1497 1499 1501 1501 1502 1502 1502 1502 1502 1503 1504 1503 1502 1501 1500 1499 1497 1496 1494 1492 1490 1488 1487 1485 1483 1482 1481 1479 1478 1477 1476 1474
1484 1485 1486 1486 1487 1488 1491 1492 1494 1495 1496 1497 1499 1500 1500 1501 1502 1501 1501 1501 1501 1502 1502 1501 1500 1499 1498 1496 1494 1492 1490 1488 1485 1484 1482 1480 1479 1477 1476 1475 1474 1472 1471
1481 1482 1483 1484 1485 1487 1489 1491 1492 1494 1495 1496 1498 1499 1500 1500 1502 1501 1499 1500 1500 1502 1501 1499 1498 1497 1495 1493 1491 1489 1487 1484 1482 1480 1478 1477 1475 1473 1472 1472 1470 1468 1466
1477 1477 1479 1481 1483 1485 1486 1489 1491 1492 1494 1496 1496 1498 1499 1499 1501 1500 1500 1500 1500 1500 1498 1497 1495 1493 1492 1490 1488 1486 1483 1480 1477 1475 1474 1473 1471 1470 1469 1468 1467 1465 1464
1473 1474 1475 1477 1479 1482 1484 1487 1490 1492 1493 1494 1495 1496 1498 1498 1500 1499 1499 1498 1499 1498 1496 1495 1493 1490 1488 1486 1484 1482 1479 1476 1474 1472 1471 1470 1469 1468 1466 1465 1464 1461 1460
1468 1470 1472 1473 1477 1480 1482 1484 1488 1489 1491 1492 1494 1496 1497 1497 1499 1498 1498 1497 1498 1496 1494 1492 1490 1486 1485 1482 1480 1478 1476 1474 1472 1470 1469 1468 1467 1465 1463 1461 1460 1458 1456
1464 1466 1468 1470 1473 1477 1480 1482 1485 1487 1490 1492 1493 1495 1496 1498 1498 1497 1496 1496 1496 1493 1491 1489 1486 1483 1481 1479 1477 1476 1473 1471 1470 1469 1468 1466 1464 1462 1460 1458 1456 1453 1451
1461 1462 1465 1467 1471 1474 1476 1480 1483 1486 1489 1491 1492 1493 1495 1497 1497 1496 1496 1495 1494 1491 1489 1487 1484 1482 1479 1476 1475 1473 1470 1468 1467 1466 1464 1462 1461 1458 1456 1454 1451 1449 1446
1458 1459 1461 1464 1468 1470 1473 1476 1481 1484 1488 1489 1492 1493 1493 1496 1497 1495 1495 1494 1492 1490 1486 1484 1482 1481 1477 1474 1470 1468 1467 1465 1463 1462 1461 1459 1457 1454 1452 1449 1446 1444 1440
1454 1455 1458 1461 1464 1467 1471 1475 1480 1483 1485 1489 1490 1491 1493 1496 1495 1495 1494 1493 1491 1489 1486 1483 1481 1478 1476 1472 1469 1465 1462 1460 1460 1460 1457 1455 1452 1450 1448 1445 1442 1439 1435
1449 1451 1454 1458 1462 1467 1471 1474 1478 1482 1484 1487 1489 1490 1493 1494 1494 1494 1493 1492 1490 1487 1485 1482 1479 1476 1475 1473 1470 1469 1465 1461 1453 1450 1450 1447 1446 1442 1441 1438 1435 1432 1428
1445 1448 1451 1457 1461 1466 1469 1473 1476 1478 1482 1486 1488 1490 1492 1493 1493 1493 1492 1490 1488 1486 1483 1480 1478 1475 1473 1471 1470 1469 1467 1464 1457 1444 1441 1439 1437 1435 1432 1429 1427 1424 1422
1443 1445 1450 1456 1460 1464 1468 1471 1475 1479 1482 1484 1487 1489 1490 1491 1492 1491 1490 1488 1486 1484 1481 1479 1477 1474 1472 1470 1467 1464 1461 1458 1456 1451 1434 1429 1428 1426 1424 1421 1419 1417 1415
1441 1445 1450 1454 1458 1463 1467 1471 1474 1478 1481 1483 1485 1487 1489 1490 1490 1489 1488 1486 1484 1482 1480 1477 1474 1472 1470 1467 1465 1462 1458 1455 1451 1447 1438 1429 1422 1417 1416 1414 1411 1409 1407